GORIZONT 23 (21533 NORAD) Tracking and Keplerian Element Data

This shows tracking and keplerian element data for the satellite.

Feedback or suggestion? Click here.




ElementValue
Catalog21533
NameGORIZONT 23
Epoch Orbit4175
Epoch Day34.30983071
Epoch Year2025
RAAN345.0192
Inclination14.1094
Eccentricity0.0007052
Argument of Perigee312.8807
Mean Anonmoly224.0192
Mean Motion0.98907283
Decay Rate-6.7E-07
L11 21533U 91046A 25034.30983071 -.00000067 00000+0 00000+0 0 9991
L22 21533 14.1094 345.0192 0007052 312.8807 224.0192 0.98907283 41755



Live tracking and technical data element details for GORIZONT 23 (NORAD 21533). GORIZONT 23 can be tracked NOW for your location showing map with azimuth and elevation plus other details from your city location.







IsCatalogInMostPopularTable: catalog: 21533, numindb: 342
Update: records affected: 1



GetName: 21533 GORIZONT 23

Hit Count: updated at: Fri, 16 May 2025 10:34:09 GMT